Location: Bílinka
(49.3579°N, 14.3767°E)
Time: 10:15:56
(UTC+00:00)

FENGYUN 1C DEB - Pass Details

Date: 24 February 2024
Orbit: 850 x 890 km, 98.8° (Epoch: 12 April)

Event Time Altitude Azimuth Distance (km) Brightness Sun altitude
Rises 18:47:32 0° 191° (S) 3,405 ? -22.0°
Reaches altitude 10° 18:50:06 10° 200° (SSW) 2,476 ? -22.4°
Maximum altitude 18:55:04 34° 265° (W) 1,380 ? -23.2°
Drops below altitude 10° 19:00:06 10° 329° (NNW) 2,510 ? -24.0°
Sets 19:02:44 0° 339° (NNW) 3,458 ? -24.4°
